Roseau, MN

5:14 AM CDT on August 19, 2017 (GMT -0500)
Roseau Municipal-Billberg

Weather History for KROX - July, 2013

Change the Weather History Date:

Wednesday, July 31, 2013

  Actual Average Record
Temperature  
Mean Temperature 62 °F -  
Max Temperature 71 °F 76 °F 93 °F (1955)
Min Temperature 53 °F 52 °F 39 °F (1976)
Degree Days  
Heating Degree Days 3    
Growing Degree Days 12 (Base 50)    
Moisture  
Dew Point 53 °F    
Average Humidity 71    
Maximum Humidity 88    
Minimum Humidity 53    
Precipitation  
Precipitation 0.00 in - - ()
Sea Level Pressure  
Sea Level Pressure 30.00 in    
Wind  
Wind Speed 8 mph (West)    
Max Wind Speed 18 mph    
Max Gust Speed 24 mph    
Visibility 10 miles    
Events      
Averages and records for this station are not official NWS values.
T = Trace of Precipitation, MM = Missing Value Source: NWS Daily Summary

Daily Weather History Graph

Daily Weather History Graph

Search for Another Location

Airport or City:

Trip Planner

Search our weather history database for the weather conditions in past years. The results will help you decide how hot, cold, wet, or windy it might be!

Date:

Astronomy

Jul. 31, 2013 Rise Set
Actual Time 5:55 AM CDT 9:02 PM CDT
Civil Twilight 5:17 AM CDT 9:39 PM CDT
Nautical Twilight 4:28 AM CDT 10:28 PM CDT
Astronomical Twilight 3:27 AM CDT 11:28 PM CDT
Moon 12:51 AM CDT (7/31) 4:20 PM CDT (7/31)
Length of Visible Light 16h 21m
Length of Day
15h 07m
Waning Crescent, 31% of the Moon is Illuminated
Jul 31
Waning Crescent
Aug 6
New
Aug 14
First Quarter
Aug 20
Full
Aug 28
Last Quarter

Hourly Weather History & Observations

Time (CDT) Temp. Dew Point Humidity Pressure Visibility Wind Dir Wind Speed Gust Speed Precip Events Conditions
12:15 AM 64.4 °F 57.2 °F 77% 30.02 in 10.0 mi West 11.5 mph 20.7 mph N/A   Scattered Clouds
12:34 AM 62.6 °F 55.4 °F 77% 30.02 in 10.0 mi WNW 8.1 mph - N/A   Clear
12:54 AM 60.8 °F 55.4 °F 82% 30.01 in 10.0 mi West 6.9 mph - N/A   Clear
1:15 AM 60.8 °F 53.6 °F 77% 30.01 in 10.0 mi West 6.9 mph - N/A   Scattered Clouds
1:54 AM 57.2 °F 53.6 °F 88% 30.00 in 10.0 mi WSW 4.6 mph - N/A   Clear
2:15 AM 57.2 °F 51.8 °F 82% 30.01 in 10.0 mi WSW 4.6 mph - N/A   Clear
2:34 AM 55.4 °F 50.0 °F 82% 30.00 in 10.0 mi SW 3.5 mph - N/A   Clear
2:54 AM 55.4 °F 48.2 °F 77% 30.00 in 10.0 mi WSW 5.8 mph - N/A   Clear
3:14 AM 55.4 °F 50.0 °F 82% 30.00 in 10.0 mi SW 5.8 mph - N/A   Clear
3:34 AM 55.4 °F 50.0 °F 82% 30.00 in 10.0 mi WSW 4.6 mph - N/A   Clear
3:54 AM 53.6 °F 48.2 °F 82% 30.00 in 10.0 mi SSW 5.8 mph - N/A   Clear
4:14 AM 55.4 °F 48.2 °F 77% 29.99 in 10.0 mi West 5.8 mph - N/A   Clear
4:34 AM 55.4 °F 50.0 °F 82% 29.99 in 10.0 mi West 4.6 mph - N/A   Clear
4:54 AM 55.4 °F 50.0 °F 82% 30.00 in 10.0 mi WNW 5.8 mph - N/A   Clear
5:14 AM 53.6 °F 48.2 °F 82% 30.00 in 10.0 mi West 5.8 mph - N/A   Clear
5:34 AM 53.6 °F 48.2 °F 82% 30.00 in 10.0 mi WSW 4.6 mph - N/A   Clear
5:54 AM 53.6 °F 48.2 °F 82% 30.01 in 10.0 mi WSW 5.8 mph - N/A   Clear
6:14 AM 53.6 °F 48.2 °F 82% 30.01 in 10.0 mi WSW 3.5 mph - N/A   Clear
6:34 AM 53.6 °F 48.2 °F 82% 30.02 in 10.0 mi WSW 4.6 mph - N/A   Clear
6:54 AM 53.6 °F 48.2 °F 82% 30.01 in 10.0 mi SW 5.8 mph - N/A   Clear
7:14 AM 55.4 °F 50.0 °F 82% 30.01 in 10.0 mi WSW 5.8 mph - N/A   Clear
7:34 AM 57.2 °F 51.8 °F 82% 30.02 in 10.0 mi West 6.9 mph - N/A   Clear
7:54 AM 57.2 °F 51.8 °F 82% 30.02 in 10.0 mi West 5.8 mph - N/A   Clear
8:14 AM 57.2 °F 51.8 °F 82% 30.02 in 10.0 mi West 8.1 mph - N/A   Clear
8:34 AM 59.0 °F 51.8 °F 77% 30.02 in 10.0 mi West 9.2 mph - N/A   Clear
8:54 AM 60.8 °F 53.6 °F 77% 30.02 in 10.0 mi West 8.1 mph 16.1 mph N/A   Clear
9:14 AM 60.8 °F 53.6 °F 77% 30.02 in 10.0 mi West 10.4 mph - N/A   Clear
9:34 AM 62.6 °F 53.6 °F 72% 30.01 in 10.0 mi WNW 6.9 mph - N/A   Clear
9:54 AM 62.6 °F 53.6 °F 72% 30.01 in 10.0 mi West 10.4 mph 18.4 mph N/A   Clear
10:14 AM 64.4 °F 55.4 °F 73% 30.01 in 10.0 mi West 10.4 mph 17.3 mph N/A   Clear
10:34 AM 64.4 °F 55.4 °F 73% 30.01 in 10.0 mi West 10.4 mph 18.4 mph N/A   Clear
10:54 AM 66.2 °F 55.4 °F 68% 30.00 in 10.0 mi West 10.4 mph 16.1 mph N/A   Clear
11:14 AM 66.2 °F 55.4 °F 68% 30.00 in 10.0 mi West 12.7 mph 17.3 mph N/A   Scattered Clouds
11:34 AM 66.2 °F 55.4 °F 68% 30.00 in 10.0 mi West 9.2 mph 19.6 mph N/A   Scattered Clouds
11:54 AM 66.2 °F 53.6 °F 64% 30.01 in 10.0 mi West 13.8 mph 24.2 mph N/A   Scattered Clouds
12:14 PM 66.2 °F 55.4 °F 68% 30.00 in 10.0 mi WNW 12.7 mph 19.6 mph N/A   Scattered Clouds
12:34 PM 66.2 °F 53.6 °F 64% 30.00 in 10.0 mi WNW 11.5 mph 18.4 mph N/A   Scattered Clouds
12:54 PM 66.2 °F 53.6 °F 64% 30.00 in 10.0 mi West 11.5 mph - N/A   Scattered Clouds
1:14 PM 66.2 °F 53.6 °F 64% 29.99 in 10.0 mi West 12.7 mph 19.6 mph N/A   Scattered Clouds
1:34 PM 69.8 °F 53.6 °F 56% 29.99 in 10.0 mi WNW 13.8 mph 19.6 mph N/A   Scattered Clouds
1:54 PM 69.8 °F 55.4 °F 60% 29.99 in 10.0 mi WNW 13.8 mph 18.4 mph N/A   Scattered Clouds
2:14 PM 69.8 °F 55.4 °F 60% 29.99 in 10.0 mi WNW 18.4 mph 23.0 mph N/A   Scattered Clouds
2:34 PM 69.8 °F 55.4 °F 60% 30.00 in 10.0 mi WNW 13.8 mph 19.6 mph N/A   Scattered Clouds
2:54 PM 68.0 °F 53.6 °F 60% 29.99 in 10.0 mi WNW 13.8 mph 21.9 mph N/A   Scattered Clouds
3:14 PM 69.8 °F 53.6 °F 56% 29.99 in 10.0 mi WNW 12.7 mph 21.9 mph N/A   Scattered Clouds
3:34 PM 69.8 °F 55.4 °F 60% 29.99 in 10.0 mi WNW 12.7 mph 18.4 mph N/A   Scattered Clouds
3:54 PM 69.8 °F 53.6 °F 56% 29.99 in 10.0 mi WNW 11.5 mph 23.0 mph N/A   Mostly Cloudy
4:14 PM 68.0 °F 55.4 °F 64% 29.99 in 10.0 mi West 10.4 mph 21.9 mph N/A   Scattered Clouds
4:34 PM 71.6 °F 53.6 °F 53% 29.99 in 10.0 mi West 13.8 mph 21.9 mph N/A   Scattered Clouds
4:54 PM 71.6 °F 55.4 °F 57% 29.98 in 10.0 mi West 13.8 mph 18.4 mph N/A   Scattered Clouds
5:14 PM 71.6 °F 53.6 °F 53% 29.99 in 10.0 mi WNW 12.7 mph 21.9 mph N/A   Scattered Clouds
5:34 PM 68.0 °F 53.6 °F 60% 29.99 in 10.0 mi WNW 11.5 mph 17.3 mph N/A   Scattered Clouds
5:54 PM 69.8 °F 53.6 °F 56% 29.99 in 10.0 mi WNW 12.7 mph 18.4 mph N/A   Scattered Clouds
6:14 PM 68.0 °F 53.6 °F 60% 29.99 in 10.0 mi WNW 10.4 mph - N/A   Scattered Clouds
6:34 PM 68.0 °F 53.6 °F 60% 29.99 in 10.0 mi WNW 9.2 mph - N/A   Mostly Cloudy
6:55 PM 69.8 °F 53.6 °F 56% 29.98 in 10.0 mi WNW 10.4 mph 17.3 mph N/A   Scattered Clouds
7:14 PM 69.8 °F 55.4 °F 60% 29.98 in 10.0 mi West 9.2 mph - N/A   Clear
7:34 PM 69.8 °F 55.4 °F 60% 29.98 in 10.0 mi West 6.9 mph - N/A   Clear
7:55 PM 68.0 °F 55.4 °F 64% 29.97 in 10.0 mi West 5.8 mph - N/A   Clear
8:14 PM 66.2 °F 55.4 °F 68% 29.97 in 10.0 mi West 4.6 mph - N/A   Scattered Clouds
8:34 PM 64.4 °F 55.4 °F 73% 29.97 in 10.0 mi WSW 3.5 mph - N/A   Scattered Clouds
8:55 PM 64.4 °F 55.4 °F 73% 29.97 in 10.0 mi West 3.5 mph - N/A   Clear
9:14 PM 64.4 °F 55.4 °F 73% 29.97 in 10.0 mi WSW 3.5 mph - N/A   Scattered Clouds
9:34 PM 62.6 °F 53.6 °F 72% 29.97 in 10.0 mi West 3.5 mph - N/A   Scattered Clouds
9:54 PM 60.8 °F 53.6 °F 77% 29.97 in 10.0 mi WSW 3.5 mph - N/A   Scattered Clouds
10:14 PM 62.6 °F 53.6 °F 72% 29.97 in 10.0 mi SW 3.5 mph - N/A   Scattered Clouds
10:34 PM 59.0 °F 53.6 °F 82% 29.97 in 10.0 mi SW 3.5 mph - N/A   Clear
10:54 PM 60.8 °F 53.6 °F 77% 29.96 in 10.0 mi WSW 3.5 mph - N/A   Mostly Cloudy
11:14 PM 62.6 °F 53.6 °F 72% 29.97 in 10.0 mi West 4.6 mph - N/A   Overcast
11:34 PM 62.6 °F 53.6 °F 72% 29.97 in 10.0 mi West 4.6 mph - N/A   Mostly Cloudy
11:54 PM 60.8 °F 53.6 °F 77% 29.97 in 10.0 mi West 4.6 mph - N/A   Scattered Clouds